Effective Sunday, March 17, 2024, the National Weather Service National Data Buoy Center will discontinue its Dial-A-Buoy Interactive Voice Response system. For more information, see Service Change Notice 24-06 (PDF).

Station WDSV2 - 8638614 - Willoughby Deguassing Station, VA Image indicating link to RSS feed of recent meteorological observations for station WDSV2


Conditions at WDSV2 as of
(12:18 pm EST)
1718 GMT on 03/03/2024:
     

Click on the graph icon in the table below to see a time series plot of the last five days of that observation.

5-day plot - Wind Direction Wind Direction (WDIR): NE ( 40 deg true )
5-day plot - Wind Speed Wind Speed (WSPD): 2.9 kts
5-day plot - Wind Gust Wind Gust (GST): 4.1 kts
5-day plot - Atmospheric Pressure Atmospheric Pressure (PRES):30.26 in
5-day plot - Wind Speed at 10 Meters Wind Speed at 10 meters (WSPD10M): 3.9 kts
5-day plot - Wind Speed at 20 Meters Wind Speed at 20 meters (WSPD20M): 3.9 kts
5-day plot -  Wind Speed, Wind Gust and Atmospheric Pressure Combined plot of Wind Speed, Gust, and Air Pressure
NOS Water Level Observation Network Water Level
Previous observations
TIME
(EST)
5-day plot - Wind Direction
WDIR
 
5-day plot - Wind Speed
WSPD
kts
5-day plot - Wind Gust
GST
kts
5-day plot - Wave Height
WVHT
ft
5-day plot - Dominant Wave Period
DPD
sec
5-day plot - Average Wave Period
APD
sec
5-day plot - Mean Wave Direction
MWD
 
5-day plot - Atmospheric Pressure
PRES
in
5-day plot - Pressure Tendency
PTDY
in
5-day plot - Air Temperature
ATMP
°F
5-day plot - Water Temperature
WTMP
°F
5-day plot - Dew Point
DEWP
°F
5-day plot - Salinity
SAL
psu
5-day plot - Visibility
VIS
nmi
5-day plot - Tide (above MLLW)
TIDE
ft
2024-03-03 12:12 pm NE 4.1 6.0----30.26-------
2024-03-03 12:06 pm NE 5.1 6.0----30.26-------
2024-03-03 12:00 pm NE 5.1 5.1----30.26-------
2024-03-03 11:54 am NE 5.1 6.0----30.26-------
2024-03-03 11:48 am NE 6.0 7.0----30.26- 51.3-----
2024-03-03 11:42 am NE 6.0 7.0----30.27- 51.1-----
2024-03-03 11:36 amENE 5.1 6.0----30.27- 51.3-----
2024-03-03 11:30 amENE 5.1 5.1----30.27- 51.3-----
2024-03-03 11:24 amENE 4.1 5.1----30.27- 51.6-----
2024-03-03 11:18 am E 4.1 5.1----30.28- 51.3-----
2024-03-03 11:12 am E 4.1 5.1----30.28- 51.3-----
2024-03-03 11:06 amENE 4.1 4.1----30.28- 50.7-----
2024-03-03 11:00 amENE 4.1 5.1----30.28+0.04 50.7-----
2024-03-03 10:54 am NE 4.1 5.1----30.28- 50.5-----
2024-03-03 10:48 am NE 4.1 5.1----30.28- 50.5-----
2024-03-03 10:42 amENE 4.1 5.1----30.28- 50.5-----
2024-03-03 10:36 am NE 4.1 5.1----30.29- 50.5-----
2024-03-03 10:30 amENE 4.1 5.1----30.29- 50.5-----
2024-03-03 10:24 amENE 4.1 4.1----30.28- 50.9-----
2024-03-03 10:18 am E 2.9 4.1----30.28- 50.9-----
2024-03-03 10:12 am E 2.9 4.1----30.28- 51.1-----
2024-03-03 10:06 am E 4.1 4.1----30.28- 50.5-----
2024-03-03 10:00 am E 4.1 5.1----30.28+0.06 50.5-----
2024-03-03 09:54 am E 5.1 6.0----30.28- 50.7-----
2024-03-03 09:48 am E 5.1 5.1----30.28- 50.9-----
2024-03-03 09:42 am E 4.1 5.1----30.28- 51.1-----
2024-03-03 09:36 amENE 5.1 5.1----30.28- 50.7-----
2024-03-03 09:30 am E 4.1 5.1----30.28-------
2024-03-03 09:24 am E 4.1 5.1----30.28-------
2024-03-03 09:18 am E 4.1 4.1----30.27-------
2024-03-03 09:12 am E 4.1 5.1----30.27-------
2024-03-03 09:06 am E 5.1 6.0----30.27-------
2024-03-03 09:00 amENE 5.1 6.0------ 51.3-----
2024-03-03 08:54 amENE 4.1 6.0------ 51.1-----
2024-03-03 08:48 amENE 5.1 6.0----30.26-------
2024-03-03 08:42 amENE 5.1 6.0----30.26-------
2024-03-03 08:36 amENE 5.1 6.0----30.26-------
2024-03-03 08:30 amENE 4.1 5.1----30.25-------
2024-03-03 08:24 am E 4.1 5.1----30.25-------
2024-03-03 08:18 am E 4.1 5.1----30.25- 51.6-----
2024-03-03 08:12 am E 4.1 5.1----30.25- 51.8-----
2024-03-03 08:06 am E 2.9 4.1----30.25- 51.6-----
2024-03-03 08:00 am NE 2.9 4.1----30.24+0.04 51.1-----
2024-03-03 07:54 am NE 4.1 5.1----30.24- 51.1-----
2024-03-03 07:48 am NE 2.9 4.1----30.24-------
2024-03-03 07:42 amENE 1.9 2.9----30.24-------
2024-03-03 07:36 am E 1.9 1.9----30.24-------
2024-03-03 07:30 am SE 1.9 2.9----30.24-------
2024-03-03 07:24 am SE 1.9 2.9----30.23-------
2024-03-03 07:18 am SE 2.9 4.1----30.23- 50.9-----
2024-03-03 07:12 am S 4.1 5.1----30.23- 50.2-----
2024-03-03 07:06 am S 4.1 4.1----30.23- 50.4-----
2024-03-03 07:00 am S 2.9 4.1----30.23+0.05 50.2-----
2024-03-03 06:54 am SE 1.9 2.9----30.22- 50.5-----
2024-03-03 06:48 am SE 1.9 2.9----30.22- 50.2-----
2024-03-03 06:42 am S 1.9 2.9----30.22- 49.8-----
2024-03-03 06:36 am- 0.0 1.9----30.22- 49.6-----
2024-03-03 06:30 am- 0.0 1.9----30.22- 49.6-----
2024-03-03 06:24 am NE 1.9 2.9----30.21- 49.6-----
2024-03-03 06:18 amNNE 2.9 4.1----30.21- 49.6-----
2024-03-03 06:12 amNNE 4.1 5.1----30.21- 49.5-----
2024-03-03 06:06 amNNE 4.1 6.0----30.21- 49.5-----
2024-03-03 06:00 amNNE 5.1 6.0----30.21+0.03------
2024-03-03 05:54 amNNE 6.0 6.0----30.21-------
2024-03-03 05:48 amNNE 4.1 5.1----30.21- 49.5-----
2024-03-03 05:42 amNNE 1.0 1.9----30.21- 49.3-----
2024-03-03 05:36 amNNE 1.0 1.9----30.21- 49.3-----
2024-03-03 05:30 amNNE 1.0 1.9----30.22- 49.3-----
2024-03-03 05:24 amNNE 1.9 1.9----30.22- 49.3-----
2024-03-03 05:18 amNNE 1.9 2.9----30.21- 49.5-----
2024-03-03 05:12 amNNE 1.9 1.9----30.21- 49.5-----
2024-03-03 05:06 am- 0.0 0.0----30.21- 49.3-----
2024-03-03 05:00 am- 0.0 1.0----30.20+0.02 49.5-----
2024-03-03 04:54 am- 0.0 1.0----30.20- 49.5-----
2024-03-03 04:48 am- 0.0 1.9----30.20- 49.6-----
2024-03-03 04:42 amNNE 1.0 1.9----30.19- 49.5-----
2024-03-03 04:36 amNNE 1.0 2.9----30.19- 49.5-----
2024-03-03 04:30 amNNE 1.9 2.9----30.19- 49.6-----
2024-03-03 04:24 amNNE 1.9 2.9----30.19- 49.5-----
2024-03-03 04:18 amNNE 2.9 2.9----30.18- 49.6-----
2024-03-03 04:12 amNNE 2.9 5.1----30.18- 49.6-----
2024-03-03 04:06 amNNE 4.1 5.1----30.18- 49.5-----
2024-03-03 04:00 amNNE 2.9 4.1----30.18+0.00 49.5-----
2024-03-03 03:54 amNNE 2.9 4.1----30.18- 49.6-----
2024-03-03 03:48 amNNE 4.1 5.1----30.18- 49.6-----
2024-03-03 03:42 amNNE 4.1 5.1----30.18- 49.6-----
2024-03-03 03:36 am N 1.9 2.9----30.19- 49.6-----
2024-03-03 03:30 amNNE 1.9 2.9----30.18- 49.8-----
2024-03-03 03:24 amNNE 1.9 1.9----30.18- 49.6-----
2024-03-03 03:18 amNNE 1.0 1.9----30.19- 49.6-----
2024-03-03 03:12 amNNE 1.0 1.9----30.18- 49.6-----
2024-03-03 03:06 amNNE 1.9 1.9----30.18- 49.8-----
2024-03-03 03:00 amNNE 1.9 1.9----30.18+0.02 50.0-----
2024-03-03 02:54 amNNE 2.9 2.9----30.18- 50.0-----
2024-03-03 02:48 amNNE 2.9 4.1----30.18- 50.0-----
2024-03-03 02:42 amNNE 2.9 2.9----30.18- 50.2-----
2024-03-03 02:36 amNNE 2.9 2.9----30.18- 50.2-----
2024-03-03 02:30 amNNE 1.9 1.9----30.18- 50.2-----
2024-03-03 02:24 amNNE 1.0 1.0----30.18- 50.0-----
2024-03-03 02:18 am- 0.0 0.0----30.18- 50.2-----
2024-03-03 02:12 am- 0.0 1.9----30.18- 50.4-----
2024-03-03 02:06 amNNE 1.0 1.9----30.18- 50.7-----
2024-03-03 02:00 amNNE 1.9 2.9----30.18+0.03 50.7-----
2024-03-03 01:54 amNNE 2.9 2.9----30.18- 50.9-----
2024-03-03 01:48 amNNE 4.1 5.1----30.18- 51.1-----
2024-03-03 01:42 amNNE 4.1 4.1----30.18- 51.1-----
2024-03-03 01:36 amNNE 4.1 4.1----30.18- 51.3-----
2024-03-03 01:30 amNNE 4.1 4.1----30.18- 51.3-----
2024-03-03 01:24 amNNE 2.9 2.9----30.18- 51.3-----
2024-03-03 01:18 amNNE 4.1 4.1----30.18- 51.4-----
2024-03-03 01:12 amNNE 4.1 5.1----30.17- 51.6-----
2024-03-03 01:06 amNNE 4.1 5.1----30.17- 51.6-----
2024-03-03 01:00 am N 5.1 5.1----30.17+0.02 51.6-----
2024-03-03 12:54 am N 5.1 5.1----30.17- 51.8-----
2024-03-03 12:48 am N 5.1 6.0----30.17- 51.8-----
2024-03-03 12:42 amNNE 5.1 5.1----30.17- 51.8-----
2024-03-03 12:36 am N 5.1 6.0----30.17- 51.8-----
2024-03-03 12:30 amNNE 5.1 5.1----30.16- 51.8-----
2024-03-03 12:24 am N 4.1 5.1----30.16- 51.8-----
2024-03-03 12:18 am N 4.1 5.1----30.16- 51.8-----
2024-03-03 12:12 am N 4.1 5.1----30.16- 52.0-----
2024-03-03 12:06 am N 5.1 6.0----30.16- 52.0-----
2024-03-03 12:00 am N 5.1 6.0----30.16+0.02 52.0-----
2024-03-02 11:54 pm N 5.1 6.0----30.16- 52.2-----
2024-03-02 11:48 pm N 4.1 6.0----30.16- 52.2-----
2024-03-02 11:42 pm N 4.1 6.0----30.15- 52.2-----
2024-03-02 11:36 pm N 6.0 8.0----30.15- 52.3-----
2024-03-02 11:30 pm N 6.0 8.0----30.15- 52.0-----
2024-03-02 11:24 pm N 8.0 8.9----30.15- 52.2-----
2024-03-02 11:18 pm N 6.0 6.0----30.15- 52.2-----
2024-03-02 11:12 pm N 5.1 6.0----30.15- 52.2-----
2024-03-02 11:06 pm N 5.1 6.0----30.15- 52.3-----
2024-03-02 11:00 pm N 5.1 6.0----30.15+0.02 52.3-----
2024-03-02 10:54 pm N 4.1 5.1----30.15- 52.5-----
2024-03-02 10:48 pm N 4.1 6.0----30.15- 52.5-----
2024-03-02 10:42 pmNNW 5.1 6.0----30.14- 52.5-----
2024-03-02 10:36 pm N 4.1 5.1----30.14- 52.5-----
2024-03-02 10:30 pmNNW 4.1 5.1----30.14- 52.5-----
2024-03-02 10:24 pm N 2.9 4.1----30.15- 52.5-----
2024-03-02 10:18 pm N 1.0 1.0----30.15- 52.5-----
2024-03-02 10:12 pm- 0.0 1.9----30.15- 52.5-----
2024-03-02 10:06 pm N 1.9 4.1----30.15- 52.7-----
2024-03-02 10:00 pm N 4.1 5.1----30.15+0.04 52.9-----
2024-03-02 09:54 pm N 5.1 6.0----30.15- 53.1-----
2024-03-02 09:48 pm N 5.1 6.0----30.15- 53.1-----
2024-03-02 09:42 pm N 6.0 7.0----30.15- 53.1-----
2024-03-02 09:36 pm N 5.1 8.0----30.15- 53.2-----
2024-03-02 09:30 pm N 6.0 8.0----30.14- 53.6-----
2024-03-02 09:24 pmNNW 5.1 7.0----30.14- 53.4-----
2024-03-02 09:18 pm N 6.0 8.0----30.14- 53.6-----
2024-03-02 09:12 pm N 8.0 8.9----30.14- 53.8-----
2024-03-02 09:06 pm N 7.0 8.0----30.14- 54.3-----
2024-03-02 09:00 pm N 6.0 7.0----30.14+0.05 54.5-----
2024-03-02 08:54 pm N 5.1 6.0----30.14- 54.9-----
2024-03-02 08:48 pm N 6.0 6.0----30.14- 54.9-----
2024-03-02 08:42 pm N 6.0 7.0----30.14- 55.2-----
2024-03-02 08:36 pm N 6.0 7.0----30.14- 55.4-----
2024-03-02 08:30 pm N 7.0 8.0----30.13- 55.6-----
2024-03-02 08:24 pmNNW 7.0 8.0----30.13- 55.6-----
2024-03-02 08:18 pmWNW 7.0 8.9----30.13- 55.8-----
2024-03-02 08:12 pm N 8.0 8.9----30.13- 55.9-----
2024-03-02 08:06 pm N 8.0 9.9----30.13- 56.1-----
2024-03-02 08:00 pm N 9.9 11.1----30.13+0.05 56.3-----
2024-03-02 07:54 pm N 6.0 7.0----30.13- 55.0-----
2024-03-02 07:48 pm N 5.1 5.1----30.12- 55.2-----
2024-03-02 07:42 pm N 5.1 7.0----30.12- 56.7-----
2024-03-02 07:36 pm N 6.0 7.0----30.12- 57.2-----
2024-03-02 07:30 pm N 6.0 7.0----30.12- 57.2-----
2024-03-02 07:24 pm N 6.0 8.9----30.12- 57.4-----
2024-03-02 07:18 pm N 7.0 8.0----30.11- 57.7-----
2024-03-02 07:12 pm N 8.0 8.9----30.11- 58.3-----
2024-03-02 07:06 pm N 8.0 8.9----30.11- 58.5-----
2024-03-02 07:00 pm N 8.0 8.9----30.11+0.04 58.3-----
2024-03-02 06:54 pm N 8.0 8.9----30.10- 58.8-----
2024-03-02 06:48 pm NW 8.9 8.9----30.10-------
2024-03-02 06:42 pm N 8.9 11.1----30.10-------
2024-03-02 06:36 pm N 8.9 9.9----30.10-------
2024-03-02 06:30 pm N 8.9 9.9----30.09- 60.6-----
2024-03-02 06:24 pm N 7.0 8.0----30.09- 60.6-----
2024-03-02 06:00 pm N 6.0 8.9----30.09- 62.2-----
2024-03-02 05:54 pm N 8.0 11.1----30.09- 62.6-----
2024-03-02 05:48 pmNNW 9.9 11.1----30.09- 61.9-----
2024-03-02 05:42 pmNNW 9.9 11.1----30.09- 62.4-----
2024-03-02 05:36 pmNNW 8.9 11.1----30.09- 61.7-----
2024-03-02 05:30 pmNNW 9.9 11.1----30.09-------
2024-03-02 05:24 pmNNW 9.9 11.1----30.09-------
2024-03-02 05:18 pm NW 9.9 9.9----30.08-------
2024-03-02 05:12 pm NW 8.9 9.9----30.08-------
2024-03-02 05:06 pm NW 9.9 11.1----30.08-------
2024-03-02 05:00 pm NW 7.0 8.0----30.08+0.00 61.7-----
2024-03-02 04:54 pm NW 6.0 8.0----30.07- 64.0-----
2024-03-02 04:48 pm NW 7.0 8.9----30.07- 64.2-----
2024-03-02 04:42 pmNNW 8.0 8.9----30.07- 64.0-----
2024-03-02 04:36 pm NW 8.9 8.9----30.06- 63.9-----
2024-03-02 04:30 pm NW 8.9 8.9----30.07- 62.8-----
2024-03-02 04:24 pmNNW 7.0 8.0----30.07- 62.2-----
2024-03-02 04:18 pmNNW 7.0 8.0----30.07- 63.5-----
2024-03-02 04:12 pmNNW 8.0 9.9----30.07- 64.0-----
2024-03-02 04:06 pm NW 7.0 8.0----30.07- 63.7-----
2024-03-02 04:00 pmNNW 8.0 8.0----30.07-0.01 62.2-----
2024-03-02 03:54 pm NW 5.1 8.0----30.07- 62.4-----
2024-03-02 03:48 pmWNW 7.0 8.9----30.06-------
2024-03-02 03:42 pm NW 8.9 9.9----30.07-------
2024-03-02 03:36 pmWNW 8.9 9.9----30.07-------
2024-03-02 03:30 pmWNW 8.0 8.9----30.07- 63.1-----
2024-03-02 03:24 pmWNW 8.9 9.9----30.07- 63.0-----
2024-03-02 03:18 pmWNW 8.0 8.9----30.07- 63.0-----
2024-03-02 03:12 pmWNW 8.9 9.9----30.07- 62.4-----
2024-03-02 03:06 pm NW 9.9 12.0----30.06- 63.1-----
2024-03-02 03:00 pm--------- 62.4-----
2024-03-02 02:54 pm--------- 62.1-----
2024-03-02 02:48 pm NW 7.0 7.0----30.07- 59.2-----
2024-03-02 02:42 pmWNW 6.0 8.9----30.07- 60.3-----
2024-03-02 02:36 pmWNW 8.9 11.1----30.07- 61.3-----
2024-03-02 02:30 pmWNW 8.9 11.1----30.07- 60.6-----
2024-03-02 02:24 pmWNW 11.1 12.0----30.07- 60.6-----
2024-03-02 02:18 pmWNW 11.1 12.0----30.07- 62.4-----
2024-03-02 02:12 pmWNW 11.1 12.0----30.07- 61.3-----
2024-03-02 02:06 pmWNW 11.1 12.0----30.07- 61.7-----
2024-03-02 02:00 pmWNW 12.0 13.0----30.07-0.03 61.2-----
2024-03-02 01:54 pmWNW 12.0 12.0----30.07- 61.5-----
2024-03-02 01:48 pmWNW 12.0 14.0----30.07- 60.8-----
2024-03-02 01:42 pmWNW 11.1 11.1----30.07- 59.2-----
2024-03-02 01:36 pmWNW 11.1 12.0----30.07- 59.5-----
2024-03-02 01:30 pm W 9.9 13.0----30.07- 59.0-----
2024-03-02 01:24 pm W 11.1 13.0----30.07- 59.2-----
2024-03-02 01:18 pm W 12.0 13.0----30.07- 60.1-----
2024-03-02 01:12 pm W 13.0 13.0----30.07- 60.6-----
2024-03-02 01:06 pm W 12.0 14.0----30.08- 60.6-----
2024-03-02 01:00 pm W 12.0 13.0----30.08-0.03 60.8-----
2024-03-02 12:54 pm W 12.0 13.0----30.08- 60.8-----